Find GalileoSat-3

NORAD ID: 38857 Int'l Des: 2012-055 Owner: ESA/GSAEU Country: I-ESA Constellation: Galileo operational
MEOCIRCULAR

リアルタイム位置

3D地球を読み込み中...

GalileoSat-3について

説明を読み込み中...

次回通過

Passes for default location (London). Set your location on the main map for personalized predictions.

高度履歴

Loading altitude history...

軌道要素

1 38857U 12055A 26101.01819338 .00000061 00000-0 00000+0 0 9993
2 38857 55.7645 103.3870 0005942 292.9619 67.0040 1.70473499 83861
Epoch: Apr 11, 2026 • Age: 104 hours

現在のステータス

高度 23241.3 km
速度 3.67 km/s
衛星直下点 35.19°N, 73.38°W
打ち上げ日 Oct 12, 2012
運用期間 13.5 years
タイプ navigation

技術仕様

分類 Payload
質量 700.00 kg
乾燥質量 700.00 kg
総質量 700.00 kg
長さ 2.70 m
直径 1.60 m
スパン 14.50 m
形状 Box + 2 Pan
製造者 EADSB/THALR
バスタイプ GalileoSat
フェーズステータス In Orbit
所有者/国 ESA/GSAEU/I-ESA

Most Searched